Tracking 19817 objects as of 19-Aug-2019
HD Live streaming from Space Station
objects crossing your sky now

DELTA 2 R/B(2) (PAM-D)


DELTA 2 R/B(2) (PAM-D) is no longer on orbit


NORAD ID: 26362
Int'l Code: 2000-025C
Perigee: N/A
Apogee: N/A
Inclination: N/A
Period: N/A
Semi major axis: N/A
RCS: N/A
Launch date: May 11, 2000
Source: United States (US)
Launch site: AIR FORCE EASTERN TEST RANGE (AFETR)
Decay date: 2011-06-22

Note: This is a ROCKET BODY
aabbcc
Your satellite tracking list
Your tracking list is empty




NASA's NSSDC Master Catalog

Two Line Element Set (TLE):
1 26362U 00025C   11173.40822906  .18181737  52511-5  29225-3 0  9998
2 26362 038.6234 191.8942 0047282 241.1200 261.2184 16.42091499343654
Source of the keplerian elements: AFSPC